Location: Shandelee
(41.8790°N, 74.8713°W)
Time: 03:55:33
(UTC+00:00)

Cosmos 2278 - Pass Details

Date: 29 October 2020
Orbit: 842 x 851 km, 71.1° (Epoch: 23 November)

Event Time Altitude Azimuth Distance (km) Brightness Sun altitude
Rises 23:06:50 0° 179° (S) 3,396 6.9 -13.6°
Reaches altitude 10° 23:09:26 10° 171° (S) 2,464 6.1 -14.0°
Maximum altitude 23:14:35 37° 105° (ESE) 1,288 4.2 -15.0°
Enters shadow 23:18:43 15° 45° (NE) 2,125 5.3 -15.8°
